Location: Eßlingen
(47.9918°N, 8.7195°E)
Time: 08:29:59
(UTC+00:00)

Daily predictions for brighter satellites

Satellite Brightness Start Highest point End
(mag) Time Altitude Azimuth Time Altitude Azimuth Time Altitude Azimuth
PSLV R/B 4.1 20:02:34 10° NNE 20:06:44 85° WNW 20:10:53 10° SSW
Cosmos 1980 Rocket 4.4 20:04:23 10° N 20:07:26 14° NNE 20:10:30 10° ENE
NOSS 2-1 (D) 4.4 20:03:24 10° NNW 20:07:38 53° NE 20:13:31 10° ESE
S3M 4.2 20:02:41 10° S 20:08:53 82° W 20:15:04 10° N
Cosmos 1953 4.2 20:07:15 10° NNW 20:10:42 29° W 20:14:09 10° SSW
Cosmos 1697 Rocket 4.4 20:06:24 10° N 20:10:45 22° NE 20:15:05 10° E
Meteor 2-10 Rocket 4.0 20:06:36 10° NNW 20:11:36 61° W 20:16:30 10° S
Cosmos 2369 Rocket 4.4 20:07:41 10° NW 20:11:44 21° W 20:15:46 10° SSW
SPOT 5 3.4 20:07:49 10° SE 20:11:56 39° ENE 20:15:58 10° N
H-2A R/B 2.6 20:08:59 10° N 20:13:21 67° WNW 20:17:46 10° SSW
Tiangong 2.4 20:12:55 10° WSW 20:15:35 24° S 20:18:14 10° SE
Cosmos 1975 Rocket 3.1 20:11:45 10° S 20:16:12 79° E 20:20:38 10° NNE
CARTOSAT-1 3.6 20:13:31 10° SSE 20:17:50 82° ENE 20:22:10 10° NNW
IRAS Rocket 4.3 20:14:25 10° NNE 20:20:03 70° ESE 20:25:35 10° S
Cosmos 2084 3.3 20:17:21 10° SSW 20:21:05 51° SE 20:24:51 10° NE
Cosmos 1656 4.4 20:15:53 10° NNW 20:21:05 42° NE 20:26:18 10° SE
USA 276 2.4 20:26:12 10° SW 20:29:01 37° SSE 20:31:50 10° E
Spot 2 Rocket 3.7 20:25:58 10° SSE 20:30:59 64° ENE 20:36:03 10° N
ATLAS 2AS CENTAUR R/B 2.8 20:24:19 10° NW 20:31:33 88° NE 20:38:00 11° SE
Cosmos 1544 Rocket 3.5 20:29:11 10° N 20:33:32 73° E 20:37:51 10° SSE
Meteor 1-24 Rocket 3.6 20:28:24 10° S 20:33:42 83° E 20:39:09 10° NNE
MetOp-B 4.5 20:28:45 10° S 20:34:05 66° WSW 20:39:26 10° NNW
Cosmos 1371 Rocket 4.1 20:30:52 10° SSW 20:36:06 85° WNW 20:41:27 10° NNE
Lacrosse 5 1.9 20:31:01 10° NW 20:36:10 88° SW 20:40:57 12° SE
USA 234 4.1 20:30:13 10° E 20:36:30 51° NNE 20:42:47 10° NW
Cosmos 1452 Rocket 4.3 20:32:17 10° SSE 20:36:54 32° E 20:41:31 10° NE
X-37B 1.0 20:36:23 10° SW 20:38:58 33° SSE 20:41:33 10° E
Cosmos 1833 Rocket 3.9 20:36:05 11° SSE 20:40:06 23° ESE 20:44:21 10° NE
Terra 2.1 20:38:02 12° SE 20:42:21 54° ENE 20:47:00 10° N
Cosmos 2184 Rocket 4.2 20:40:18 10° N 20:46:23 56° ENE 20:51:50 13° SSE
Resurs 01 Rocket 3.6 20:45:28 10° SSW 20:49:10 26° W 20:52:55 10° NW
Cosmos 724 4.3 20:46:18 10° SSW 20:52:01 63° ESE 20:57:45 10° NE
Helios 1A Rocket 2.9 20:51:31 13° SSE 20:55:11 82° WSW 20:59:18 10° NNW
CZ-4B R/B 3.6 20:53:15 10° NNW 20:55:33 22° WNW 20:57:50 10° WSW
Cosmos 1624 Rocket 4.5 20:51:16 10° SSW 20:56:28 64° WNW 21:01:40 10° NNE
Lacrosse 5 rocket 2.3 20:55:38 10° WNW 20:59:10 34° SW 21:01:56 16° SSE
Cosmos 1271 Rocket 3.2 20:56:54 10° NNW 21:00:49 59° W 21:04:25 12° S
Cosmos 2082 Rocket 3.9 21:01:01 12° ESE 21:03:06 15° E 21:06:07 10° ENE
SPOT 3 Rocket 4.4 21:00:14 10° S 21:05:11 46° W 21:10:13 10° NNW
NOSS 2-1 (E) 4.2 21:01:35 10° NW 21:06:12 71° SW 21:11:18 16° SSE
ERS-1 Rocket 3.1 21:03:41 13° S 21:08:12 72° WSW 21:13:16 10° NNW
RESURS DK-1 2.8 21:06:13 10° NNW 21:10:18 54° ENE 21:13:07 19° SE
CZ-2C R/B 3.7 21:12:05 10° NNE 21:16:44 90° WSW 21:21:15 10° SSW
ARIANE 5 R/B 2.6 21:18:10 19° SSE 21:21:25 86° WSW 21:25:53 10° NNW
Cosmos 1741 Rocket 4.0 21:16:45 10° NNW 21:22:07 85° ENE 21:25:51 20° SSE
Cosmos 2344 4.4 21:19:12 10° NW 21:27:51 71° NE 21:38:57 13° SE
SL-8 R/B 3.6 21:24:05 10° W 21:28:55 84° S 21:33:28 12° ESE
GP-B 4.0 21:27:40 10° NNE 21:31:44 34° E 21:33:53 22° SE
Cosmos 1455 4.0 21:28:40 10° NNW 21:31:51 26° W 21:35:02 10° SSW
Cosmos 2074 Rocket 4.3 21:28:42 10° NNW 21:34:56 66° W 21:40:09 15° S
ASTEX 1 3.7 21:35:02 10° NNE 21:39:56 51° E 21:42:46 24° SSE
COSMOS 2406 3.8 21:37:53 21° SSE 21:41:10 40° ESE 21:46:31 10° NE
Cosmos 2369 4.2 21:38:33 10° NNW 21:44:11 53° ENE 21:48:09 19° SE
USA 267 3.2 21:37:56 10° ENE 21:44:29 72° SE 21:51:01 10° SW
SL-16 R/B 4.3 21:40:56 10° N 21:44:57 19° NE 21:48:56 10° E
Cosmos 2228 3.5 21:45:22 10° NNW 21:49:30 54° W 21:52:05 21° SSW
SPOT 5 4.5 21:46:34 10° SSW 21:50:09 24° W 21:53:42 10° NW
Tiangong 3.5 21:50:04 10° SW 21:50:37 12° SW 21:50:37 12° SW
Cosmos 1850 Rocket 4.5 21:47:07 10° NNW 21:52:11 52° WSW 21:55:21 22° S
Nadezhda 1 Rocket 4.0 21:47:09 15° SSW 21:52:16 82° W 21:58:23 10° N
Cosmos 1980 Rocket 2.7 21:47:12 10° NNW 21:52:49 54° ENE 21:56:37 20° SE
Cosmos 1606 Rocket 3.6 21:50:18 10° NNW 21:54:36 75° W 21:56:56 27° S
Cosmos 1703 4.3 21:51:22 12° SW 21:54:40 40° WNW 21:58:20 10° N
Cosmos 1697 Rocket 2.7 21:49:46 10° NNW 21:55:25 82° WSW 21:58:44 26° SSE
Cosmos 1892 3.5 21:55:58 29° SE 21:57:01 35° E 22:00:29 10° NNE
SJ 16-02 4.0 21:56:38 10° NNE 21:58:00 11° NE 21:59:21 10° ENE
Cosmos 2154 Rocket 4.3 21:53:37 10° NNW 21:59:44 60° W 22:04:14 19° SSW
Cosmos 2084 Rocket 3.8 21:56:37 10° NW 22:00:26 54° NE 22:02:43 23° ESE
Meteor 1-11 4.4 21:57:30 25° SSE 22:00:40 56° E 22:06:08 10° NNE
USA 276 2.3 22:01:38 10° W 22:04:37 66° N 22:07:37 10° ENE
Cosmos 1328 3.9 22:04:05 25° SSW 22:06:19 72° WNW 22:10:20 10° N
Cosmos 1331 Rocket 4.1 22:04:07 14° SSW 22:08:40 78° WNW 22:14:00 10° NNE
X-37B 1.8 22:11:28 10° WSW 22:12:57 25° WSW 22:12:57 25° WSW
Cosmos 1408 2.3 22:15:25 45° S 22:16:20 74° E 22:19:47 10° NNE
Lacrosse 5 3.5 22:14:53 10° WNW 22:18:33 20° WSW 22:20:08 17° SSW
SAR-Lupe-4 4.3 22:15:32 10° N 22:19:00 48° WNW 22:21:00 22° SW
USA 234 3.2 22:14:25 19° SE 22:19:18 80° SW 22:25:54 10° NW
Cosmos 1726 Rocket 4.0 22:15:09 10° NNW 22:19:22 53° W 22:21:23 28° SSW
Terra 3.8 22:16:56 10° SW 22:20:25 20° W 22:23:56 10° NW
ATLAS 2AS CENTAUR R/B 4.2 22:16:27 10° WNW 22:21:31 22° WSW 22:25:25 13° SSW
Cosmos 1833 Rocket 3.1 22:17:57 10° SW 22:23:32 64° WNW 22:29:08 10° NNE
Cosmos 2322 Rocket 4.0 22:19:46 10° N 22:24:23 25° NE 22:28:59 10° E
Cosmos 1867 3.7 22:22:28 10° NW 22:27:59 71° NE 22:31:17 24° SE
Cosmos 2278 4.0 22:23:15 10° NNW 22:28:57 61° ENE 22:32:24 24° SE
ATLAS 5 CENTAUR R/B 3.0 22:30:25 18° ESE 22:30:25 18° ESE 22:32:42 10° ENE
SL-8 Rocket 4.0 22:24:00 10° N 22:30:18 87° W 22:33:46 28° S
ALOS 2 2.8 22:32:45 34° SE 22:34:33 65° ENE 22:38:54 10° N
Cosmos 1302 Rocket 3.9 22:31:55 26° SSW 22:34:58 89° ESE 22:40:12 10° NNE
Cosmos 2218 Rocket 4.0 22:35:56 10° N 22:42:23 84° W 22:45:53 29° S
Cosmos 2366 rocket 4.0 22:39:48 10° N 22:46:08 80° W 22:49:34 29° S
Cosmos 2082 Rocket 2.2 22:42:49 25° SSW 22:46:19 87° ESE 22:52:04 10° NNE
Cosmos 1602 Rocket 4.0 22:45:32 35° SE 22:46:47 46° E 22:50:55 10° NNE
RESURS DK-1 4.3 22:45:10 10° WNW 22:47:52 17° WSW 22:48:58 16° SW
H-2A R/B 3.4 22:45:34 10° NNE 22:49:47 76° ESE 22:51:09 42° S
Cosmos 2341 Rocket 4.5 22:44:23 10° NNW 22:50:31 53° W 22:54:07 25° SSW
Cosmos 2058 Rocket 3.9 22:49:12 10° NNW 22:53:20 41° W 22:55:04 28° SW
Spot 4 4.2 22:52:42 32° SSW 22:54:38 53° W 22:59:20 10° NNW
Cosmos 1825 2.2 22:58:50 46° SSW 22:59:48 74° W 23:03:34 10° N
Cosmos 2360 Rocket 3.8 22:59:04 10° NNW 23:04:04 30° NE 23:09:01 10° ESE
Cosmos 968 Rocket 4.2 23:00:34 10° NW 23:05:24 40° WSW 23:07:22 29° SSW
ERS-2 2.3 23:01:52 10° NNE 23:05:24 53° ESE 23:05:53 48° SE
Cosmos-2242 3.1 23:02:40 10° N 23:06:54 63° ENE 23:08:16 39° SE
SL-8 R/B 4.3 23:06:46 10° W 23:11:09 36° SSW 23:11:22 35° SSW
Cosmos 1626 Rocket 3.7 23:10:22 36° SSW 23:11:58 65° WNW 23:16:18 10° N
Cosmos 1869 3.9 23:12:33 10° NNW 23:16:14 42° W 23:17:09 36° SW
Cosmos 1606 3.1 23:13:29 10° N 23:17:17 56° ENE 23:18:18 41° SE
Cosmos 2058 3.8 23:16:21 32° SE 23:17:26 38° E 23:21:20 10° NNE
BREEZE-M DEB (TANK) 4.0 23:14:16 10° WNW 23:17:53 90° NNE 23:33:17 10° ESE
Cosmos 1825 Rocket 4.0 23:22:58 37° SE 23:24:12 49° E 23:28:23 10° NNE
ADEOS Rocket 3.7 23:20:28 28° S 23:24:23 62° W 23:31:58 10° NNW
COSMOS 2406 4.4 23:20:06 10° WSW 23:25:29 40° NW 23:30:54 10° NNE
Cosmos 1633 2.5 23:25:15 56° SW 23:25:49 71° WNW 23:29:18 10° N
USA 267 4.0 23:21:04 10° NE 23:27:23 54° NNW 23:33:42 10° W
SL-16 R/B 2.2 23:24:16 10° NNW 23:30:00 81° ENE 23:33:07 28° SSE
Meteor 2-20 4.5 23:32:16 31° SSW 23:35:24 78° W 23:41:32 10° N
Cosmos 1980 Rocket 3.4 23:31:45 10° NW 23:36:29 28° WSW 23:38:21 23° SW
SJ 16-02 1.5 23:32:59 10° NNW 23:37:26 71° ENE 23:39:13 35° SE
Cosmos 1486 Rocket 4.5 23:32:48 10° NNW 23:37:48 46° WSW 23:39:34 33° SSW
USA 276 2.4 23:37:30 10° WNW 23:40:30 63° N 23:43:29 10° E
Meteor 2-2 Rocket 4.4 23:36:39 10° N 23:42:40 77° ENE 23:45:55 29° SSE
Cosmos 1821 Rocket 4.2 23:36:43 10° NNW 23:42:53 61° W 23:45:54 30° SSW
Cosmos 2219 Rocket 4.0 23:39:34 10° NNW 23:44:26 28° NE 23:49:17 10° ESE
Cosmos 1340 Rocket 3.1 23:48:44 41° SE 23:49:40 52° E 23:53:32 10° NNE
CZ-2D R/B 4.2 23:47:18 10° NE 23:50:32 16° E 23:53:35 10° SE
